When you browse on this site, cookies collect data to enhance your experience and personalize the content and advertising you see.
Visit our Privacy Policy to learn more. By continuing to use the site, you agree to this use of cookies and data.
  • In Latvia
  • List of Countries
  • For 7 days
  • Water Temperature
  • Satellite Maps
  • Weather Map
  • Weather Widgets
  • user-avatar
    Login

    Hourly Weather Kreuzlingen

    Today, 21 July, Sunday

    Time Temperature Precipitation Wind Pressure Humidity
    00:00 +21°C° 0.4 mm 1 mps 725 mmHg 85%
    01:00 +20°C° 0 mm 1 mps 725 mmHg 89%
    02:00 +20°C° 1.5 mm 1 mps 725 mmHg 91%
    03:00 +20°C° 1.5 mm 1 mps 724 mmHg 93%
    04:00 +18°C° 1.5 mm 2 mps 724 mmHg 95%
    05:00 +19°C° 2.5 mm 2 mps 725 mmHg 95%
    06:00 +19°C° 2.5 mm 2 mps 725 mmHg 95%
    07:00 +20°C° 2.5 mm 2 mps 726 mmHg 95%
    08:00 +21°C° 0.7 mm 2 mps 726 mmHg 90%
    09:00 +23°C° 0.7 mm 2 mps 726 mmHg 84%
    10:00 +25°C° 0.7 mm 2 mps 727 mmHg 79%
    11:00 +25°C° 0.7 mm 2 mps 727 mmHg 77%
    12:00 +25°C° 0.7 mm 2 mps 727 mmHg 76%
    13:00 +26°C° 0.7 mm 2 mps 727 mmHg 74%
    14:00 +27°C° 0.4 mm 2 mps 727 mmHg 69%
    15:00 +27°C° 0.4 mm 2 mps 727 mmHg 64%
    16:00 +28°C° 0.4 mm 1 mps 728 mmHg 59%
    17:00 +27°C° 0.2 mm 1 mps 728 mmHg 67%
    18:00 +25°C° 0.2 mm 1 mps 727 mmHg 75%
    19:00 +24°C° 0.2 mm 1 mps 727 mmHg 83%
    20:00 +23°C° 0 mm 1 mps 728 mmHg 84%
    21:00 +21°C° 0 mm 1 mps 728 mmHg 86%
    22:00 +20°C° 0 mm 1 mps 728 mmHg 88%
    23:00 +19°C° 0 mm 1 mps 728 mmHg 89%

    Tomorrow, 22 July, Monday

    Time Temperature Precipitation Wind Pressure Humidity
    00:00 +19°C° 0 mm 1 mps 728 mmHg 90%
    01:00 +16°C° 0 mm 0 mps 728 mmHg 91%
    02:00 +16°C° 0 mm 0 mps 728 mmHg 92%
    03:00 +16°C° 0 mm 0 mps 728 mmHg 92%
    04:00 +15°C° 0 mm 0 mps 728 mmHg 93%
    05:00 +16°C° 0 mm 0 mps 728 mmHg 92%
    06:00 +17°C° 0 mm 0 mps 728 mmHg 91%
    07:00 +18°C° 0 mm 0 mps 728 mmHg 90%
    08:00 +20°C° 0 mm 0 mps 729 mmHg 83%
    09:00 +22°C° 0 mm 0 mps 729 mmHg 77%
    10:00 +24°C° 0 mm 0 mps 729 mmHg 70%
    11:00 +25°C° 0 mm 0 mps 729 mmHg 64%
    12:00 +27°C° 0 mm 0 mps 729 mmHg 59%
    13:00 +28°C° 0 mm 0 mps 729 mmHg 53%
    14:00 +30°C° 0 mm 1 mps 729 mmHg 52%
    15:00 +30°C° 0 mm 1 mps 728 mmHg 51%
    16:00 +30°C° 0 mm 1 mps 728 mmHg 51%
    17:00 +28°C° 0 mm 1 mps 728 mmHg 59%
    18:00 +27°C° 0 mm 1 mps 728 mmHg 68%
    19:00 +25°C° 0 mm 2 mps 728 mmHg 77%
    20:00 +24°C° 0 mm 1 mps 728 mmHg 81%
    21:00 +22°C° 0 mm 1 mps 728 mmHg 85%
    22:00 +21°C° 0 mm 1 mps 728 mmHg 89%
    23:00 +20°C° 0 mm 1 mps 728 mmHg 90%

    Day after tomorrow, 23 July, Tuesday

    Time Temperature Precipitation Wind Pressure Humidity
    00:00 +19°C° 0 mm 1 mps 728 mmHg 91%
    01:00 +19°C° 0 mm 1 mps 727 mmHg 92%
    02:00 +18°C° 0 mm 1 mps 727 mmHg 93%
    03:00 +18°C° 0 mm 1 mps 727 mmHg 94%
    04:00 +16°C° 0 mm 1 mps 727 mmHg 95%
    05:00 +18°C° 0 mm 1 mps 727 mmHg 93%
    06:00 +19°C° 0 mm 1 mps 727 mmHg 90%
    07:00 +20°C° 0 mm 1 mps 726 mmHg 88%
    08:00 +22°C° 0 mm 1 mps 727 mmHg 81%
    09:00 +24°C° 0 mm 1 mps 727 mmHg 74%
    10:00 +26°C° 0 mm 1 mps 727 mmHg 68%
    11:00 +27°C° 0 mm 2 mps 727 mmHg 65%
    12:00 +29°C° 0 mm 2 mps 726 mmHg 61%
    13:00 +30°C° 0 mm 2 mps 726 mmHg 58%
    14:00 +30°C° 0 mm 2 mps 726 mmHg 59%
    15:00 +30°C° 0 mm 2 mps 726 mmHg 59%
    16:00 +31°C° 0 mm 3 mps 725 mmHg 59%
    17:00 +29°C° 0 mm 2 mps 725 mmHg 66%
    18:00 +28°C° 0 mm 2 mps 725 mmHg 73%
    19:00 +27°C° 0 mm 2 mps 725 mmHg 79%
    20:00 +25°C° 0 mm 2 mps 725 mmHg 83%
    21:00 +23°C° 0 mm 1 mps 725 mmHg 86%
    22:00 +22°C° 0 mm 1 mps 725 mmHg 90%
    23:00 +21°C° 0 mm 1 mps 725 mmHg 91%

    24 July, Wednesday

    Time Temperature Precipitation Wind Pressure Humidity
    00:00 +19°C° 0 mm 0 mps 725 mmHg 92%
    01:00 +18°C° 0 mm 0 mps 724 mmHg 93%
    02:00 +17°C° 0 mm 0 mps 724 mmHg 93%
    03:00 +17°C° 0 mm 0 mps 724 mmHg 94%
    04:00 +17°C° 0 mm 0 mps 724 mmHg 94%
    05:00 +18°C° 0 mm 0 mps 724 mmHg 91%
    06:00 +19°C° 0 mm 0 mps 724 mmHg 89%
    07:00 +20°C° 0 mm 0 mps 724 mmHg 86%
    08:00 +22°C° 0 mm 0 mps 724 mmHg 80%
    09:00 +25°C° 0 mm 0 mps 725 mmHg 73%
    10:00 +27°C° 0 mm 0 mps 725 mmHg 66%
    11:00 +29°C° 0 mm 0 mps 725 mmHg 61%
    12:00 +30°C° 0 mm 0 mps 725 mmHg 56%
    13:00 +32°C° 0 mm 0 mps 724 mmHg 52%
    14:00 +32°C° 0 mm 0 mps 724 mmHg 50%
    15:00 +32°C° 0 mm 0 mps 724 mmHg 48%
    16:00 +32°C° 0 mm 0 mps 724 mmHg 46%
    17:00 +32°C° 0 mm 1 mps 724 mmHg 55%
    18:00 +30°C° 0 mm 1 mps 724 mmHg 64%
    19:00 +28°C° 0 mm 1 mps 724 mmHg 73%
    20:00 +27°C° 0 mm 1 mps 724 mmHg 76%
    21:00 +25°C° 0 mm 1 mps 724 mmHg 79%
    22:00 +24°C° 0 mm 1 mps 724 mmHg 83%
    23:00 +23°C° 0 mm 1 mps 724 mmHg 83%

    25 July, Thursday

    Time Temperature Precipitation Wind Pressure Humidity
    00:00 +21°C° 0 mm 0 mps 723 mmHg 84%
    01:00 +20°C° 0 mm 0 mps 723 mmHg 85%
    02:00 +20°C° 0 mm 0 mps 723 mmHg 87%
    03:00 +20°C° 0 mm 0 mps 723 mmHg 88%
    04:00 +19°C° 0 mm 0 mps 723 mmHg 89%
    05:00 +20°C° 0 mm 0 mps 723 mmHg 87%
    06:00 +21°C° 0 mm 0 mps 723 mmHg 84%
    07:00 +22°C° 0 mm 0 mps 723 mmHg 82%
    08:00 +24°C° 0 mm 0 mps 723 mmHg 76%
    09:00 +26°C° 0 mm 0 mps 723 mmHg 69%
    10:00 +30°C° 0 mm 1 mps 723 mmHg 63%
    11:00 +31°C° 0 mm 1 mps 723 mmHg 59%
    12:00 +32°C° 0 mm 1 mps 722 mmHg 56%
    13:00 +34°C° 0 mm 1 mps 722 mmHg 52%
    14:00 +34°C° 0 mm 1 mps 722 mmHg 52%
    15:00 +34°C° 0 mm 1 mps 722 mmHg 51%
    16:00 +34°C° 0 mm 1 mps 722 mmHg 51%
    17:00 +32°C° 0.1 mm 1 mps 721 mmHg 61%
    18:00 +30°C° 0.1 mm 1 mps 721 mmHg 70%
    19:00 +29°C° 0.1 mm 1 mps 721 mmHg 80%
    20:00 +28°C° 0 mm 1 mps 721 mmHg 82%
    21:00 +26°C° 0 mm 1 mps 722 mmHg 85%
    22:00 +25°C° 0 mm 1 mps 722 mmHg 87%
    23:00 +24°C° 0.5 mm 1 mps 722 mmHg 89%

    26 July, Friday

    Time Temperature Precipitation Wind Pressure Humidity
    00:00 +23°C° 0.5 mm 1 mps 721 mmHg 91%
    01:00 +23°C° 0.5 mm 1 mps 721 mmHg 92%
    02:00 +22°C° 0.6 mm 1 mps 721 mmHg 92%
    03:00 +22°C° 0.6 mm 1 mps 721 mmHg 92%
    04:00 +21°C° 0.6 mm 1 mps 721 mmHg 92%
    05:00 +22°C° 0.9 mm 1 mps 721 mmHg 92%
    06:00 +22°C° 0.9 mm 1 mps 722 mmHg 91%
    07:00 +23°C° 0.9 mm 1 mps 722 mmHg 91%
    08:00 +25°C° 0 mm 1 mps 722 mmHg 81%
    09:00 +27°C° 0 mm 1 mps 722 mmHg 71%
    10:00 +28°C° 0 mm 2 mps 722 mmHg 60%
    11:00 +30°C° 0 mm 1 mps 722 mmHg 56%
    12:00 +31°C° 0 mm 1 mps 722 mmHg 53%
    13:00 +32°C° 0 mm 1 mps 722 mmHg 49%
    14:00 +32°C° 0.2 mm 1 mps 722 mmHg 50%
    15:00 +31°C° 0.2 mm 1 mps 721 mmHg 52%
    16:00 +31°C° 0.2 mm 1 mps 721 mmHg 54%
    17:00 +29°C° 1 mm 2 mps 721 mmHg 66%
    18:00 +26°C° 1 mm 2 mps 721 mmHg 78%
    19:00 +24°C° 1 mm 2 mps 721 mmHg 90%
    20:00 +21°C° 9.5 mm 3 mps 722 mmHg 92%
    21:00 +20°C° 9.5 mm 3 mps 722 mmHg 94%
    22:00 +19°C° 9.5 mm 3 mps 722 mmHg 97%
    23:00 +18°C° 5.2 mm 3 mps 723 mmHg 97%
    Show more